This is the latest recevied weather packets stored in our database for station/object KN6ETB-1. If no packets are shown the sender has not sent any weather packets the latest 10 day(s).
| Time | Temp. | Humidity | Pressure | Rain* | Wind** | Luminosity | Snow |
|---|---|---|---|---|---|---|---|
| 1777653134 | 18.89° C | 69% | 1011.5 hPa | 0 mm | - | 652 W/m² | - |
| 1777652830 | 18.33° C | 70% | 1011.5 hPa | 0 mm | - | 603 W/m² | - |
| 1777652526 | 18.33° C | 70% | 1011.5 hPa | 0 mm | - | 505 W/m² | - |
| 1777652224 | 18.33° C | 70% | 1011.5 hPa | 0 mm | - | 500 W/m² | - |
| 1777651921 | 17.78° C | 71% | 1011.3 hPa | 0 mm | - | 480 W/m² | - |
| 1777651617 | 18.33° C | 71% | 1011.3 hPa | 0 mm | - | 437 W/m² | - |
| 1777651315 | 17.78° C | 73% | 1011.4 hPa | 0 mm | - | 396 W/m² | - |
| 1777651011 | 17.78° C | 72% | 1011.4 hPa | 0 mm | - | 373 W/m² | - |
| 1777650709 | 17.22° C | 74% | 1011.4 hPa | 0 mm | - | 362 W/m² | - |
| 1777650406 | 16.67° C | 74% | 1011.2 hPa | 0 mm | - | 339 W/m² | - |
| 1777650103 | 16.67° C | 74% | 1011.1 hPa | 0 mm | - | 289 W/m² | - |
| 1777649800 | 16.67° C | 76% | 1011.1 hPa | 0 mm | - | 284 W/m² | - |
| 1777649497 | 16.11° C | 77% | 1011.1 hPa | 0 mm | - | 305 W/m² | - |
| 1777649193 | 16.11° C | 77% | 1011.1 hPa | 0 mm | - | 300 W/m² | - |
| 1777648890 | 16.11° C | 77% | 1011.1 hPa | 0 mm | - | 267 W/m² | - |
| 1777648284 | 15.56° C | 79% | 1011.2 hPa | 0 mm | - | 217 W/m² | - |
| 1777647980 | 15° C | 80% | 1011 hPa | 0 mm | - | 215 W/m² | - |
| 1777647677 | 15° C | 80% | 1010.8 hPa | 0 mm | - | 211 W/m² | - |
| 1777647372 | 14.44° C | 81% | 1011.1 hPa | 0 mm | - | 189 W/m² | - |
| 1777647071 | 14.44° C | 82% | 1010.8 hPa | 0 mm | - | 164 W/m² | - |
| 1777646766 | 14.44° C | 83% | 1010.8 hPa | 0 mm | - | 149 W/m² | - |
| 1777646461 | 13.89° C | 83% | 1010.7 hPa | 0 mm | - | 129 W/m² | - |
| 1777646158 | 13.89° C | 84% | 1010.7 hPa | 0 mm | - | 112 W/m² | - |
| 1777645855 | 13.89° C | 85% | 1010.6 hPa | 0 mm | - | 108 W/m² | - |
| 1777645552 | 13.33° C | 85% | 1010.9 hPa | 0 mm | - | 92 W/m² | - |
* Rain latest hour (hover to see other rain measurements)
** Current wind speed in m/s (hover to see current wind gust speed)